Hourly Data Report for May 26, 2019

MIRAMICHI RCS
NEW BRUNSWICK
Current Station Operator: ECCC - MSC

47°00'34.000" N
65°27'54.000" W
33.00 m
8100989
71744
ACQ

Download Data

Hourly Data (May 2019)
Hourly Data Report for May 26, 2019
TIME
LST
Temp Definition
°C
Dew Point Definition
°C
Rel Hum Definition
%
Precip. Amount Definition
mm

Wind Dir Definition
10's deg

Wind Spd Definition
km/h
Visibility Definition
km
Stn Press Definition
kPa
Hmdx Definition


Wind Chill Definition


Weather Definition


00:00 12.2 3.6 56 0.0 20 4   101.06     LegendNANA
01:00 13.8 3.6 50 0.0 21 11   101.01     LegendNANA
02:00 13.5 3.3 50 0.0 19 16   100.96     LegendNANA
03:00 13.0 3.0 51 0.0 21 7   100.89     LegendNANA
04:00 12.3 3.1 53 0.0 18 14   100.83     LegendNANA
05:00 11.6 3.1 56 0.0 19 10   100.81     LegendNANA
06:00 11.6 3.2 56 0.0 19 6   100.82     LegendNANA
07:00 12.0 3.9 58 0.0 22 12   100.82     LegendNANA
08:00 10.9 6.7 76 0.0 20 18   100.82     LegendNANA
09:00 10.4 8.6 89 0.2 21 22   100.81     LegendNANA
10:00 10.2 8.3 88 0.4 20 18   100.82     LegendNANA
11:00 10.7 8.8 88 0.7 19 18   100.73     LegendNANA
12:00 11.3 8.4 82 0.0 18 23   100.68     LegendNANA
13:00 10.2 8.6 90 0.0 18 20   100.67     LegendNANA
14:00 10.0 8.7 92 0.0 18 18   100.63     LegendNANA
15:00 10.1 8.9 92 0.2 18 19   100.61     LegendNANA
16:00 10.1 9.1 94 0.2 18 15   100.58     LegendNANA
17:00 10.0 9.1 95 0.2 17 15   100.56     LegendNANA
18:00 10.2 9.2 94 0.0 18 11   100.55     LegendNANA
19:00 10.1 9.3 94 0.0 18 8   100.57     LegendNANA
20:00 10.0 9.3 95 0.0 19 6   100.58     LegendNANA
21:00 10.1 9.2 95 0.0 19 9   100.59     LegendNANA
22:00 9.9 9.2 96 0.0 20 10   100.57     LegendNANA
23:00 9.8 9.2 97 0.0 19 11   100.55     LegendNANA

Notes on Data Quality.

Legend

  • E = Estimated
  • M = Missing
  • NA = Not Available*
  • [empty] = Indicates an unobserved value
Date modified: